Simultaneous Nadir Overpasses (SNOs) Predictions

Prediction of SNOs between NOAA-19 and NPP Satellite Orbit:

Table of predicted SNOs for the next 14.0 days since TLE Epoch: 10/12/2019
Index Date (NOAA-19) Time (NOAA-19) Lat,Lon (NOAA-19) SZA (NOAA-19 ) Date (NPP) Time (NPP) Lat,Lon (NPP) SZA (NPP ) Distance(km) Time Diff (sec)
1 10/24/2019 18:06:39 -79.83, 51.22 86.77 10/24/2019 18:07:41 -79.83, 51.25 86.80 0.70 62
2 10/24/2019 18:57:33 79.84,-141.34 93.24 10/24/2019 18:58:26 79.82,-141.39 93.21 2.05 53
3 10/24/2019 19:48:39 -79.84, 25.94 86.76 10/24/2019 19:49:11 -79.83, 25.84 86.77 2.43 32
4 10/24/2019 20:39:34 79.83,-166.92 93.26 10/24/2019 20:39:56 79.83,-166.80 93.24 2.51 22
5 10/24/2019 21:30:40 -79.84, 0.37 86.73 10/24/2019 21:30:41 -79.84, 0.43 86.74 1.37 1
6 10/24/2019 22:21:34 79.85, 167.80 93.28 10/24/2019 22:21:26 79.83, 167.79 93.27 2.34 8
7 10/24/2019 23:12:40 -79.86, -24.91 86.71 10/24/2019 23:12:11 -79.84, -24.98 86.71 2.35 29
8 10/25/2019 00:03:35 79.85, 142.22 93.31 10/25/2019 00:02:56 79.83, 142.38 93.30 3.34 39
9 10/25/2019 00:54:41 -79.85, -50.49 86.69 10/25/2019 00:53:41 -79.84, -50.38 86.68 2.18 60




NCC Satellite Simultaneous Nadir Overpasses (SNOs) Prediction Service
